{"data":{"norad_id":68566,"intl_designator":"2026-070AA","name":"STARLINK-37212","alt_names":[],"object_type":"PAYLOAD","status":"ACTIVE","operator":null,"country":"US","launch_date":"2026-04-02","launch_site_code":"AFETR","launch_vehicle":null,"mission":null,"orbit_class":"UNKNOWN","rcs_meters":null,"size_class":null,"mass_kg":null,"dimensions":null,"purposes":["comms"],"wikipedia_slug":null,"has_3d_model":false,"image_url":null,"decayed_at":null,"tle_current":{"epoch":"2026-09-19T11:16:42.975840Z","epoch_age_seconds":134302,"freshness":"FRESH","line1":"1 68566U 26070AA  26262.46994185  .00013105  00000+0  39823-3 0  9997","line2":"2 68566  53.1580 178.2061 0001278  80.4613 279.6534 15.34406290 26288","mean_motion":15.3440629,"eccentricity":0.0001278,"inclination_deg":53.158,"raan_deg":178.2061,"arg_perigee_deg":80.4613,"mean_anomaly_deg":279.6534,"bstar":0.00039823,"rev_number":2628,"period_min":93.847373370713,"perigee_km":461.81028807195,"apogee_km":463.55880205887,"semimajor_km":6840.8215450654,"source":"CELESTRAK","updated_at":"2026-09-20T09:00:43.938912Z"}}}